Location: Bottom School (historical)
(37.9078°N, 89.3593°W)
Time: 20:15:00
(UTC+00:00)

SL-4 R/B - Pass Details

Date: 01 July 2022
Orbit: 425 x 653 km, 51.6° (Epoch: 16 August)

Event Time Altitude Azimuth Distance (km) Brightness Sun altitude
Exits shadow 07:04:02 30° 27° (NNE) 861 3.5 -27.2°
Drops below altitude 10° 07:06:14 10° 43° (NE) 1,670 5.3 -27.1°
Sets 07:08:32 0° 48° (NE) 2,596 6.4 -27.0°
